www.pogodaiklimat.ru

Погода и климат >> Архив погоды >> Россия >> Коми >> Воркута


АРХИВ ПОГОДЫ в Воркуте

Время (UTC), дата Ветер
(напр.,м/с)
 
Видим.   Явления Облачность Т
(С)
Тd
(С)
f
(%)
Тe
(С)
Тes
(С)
Комфортность P
(гПа)
Po
(гПа)
Тmin
(С)
Tmax
(С)
R
(мм)
R24
(мм)
S
(см)
09 18.06 ЮЗ 3 7000 м слаб. ливневой снег 10/6 400 м
[Cb cap Ac und]
+3.1 +1.3 88 -1 0 очень
холодно
997.1 976.2
12 18.06 З 6
{11}
10 км в посл. час ливневой снег 10/10 240 м
[Cb cap]
+1.9 +0.8 92 -4 -4 очень
холодно
998.1 977.0
15 18.06 З 6
{10}
10 км в посл. час ливневой снег 10/10 210 м
[Cb cap]
+1.5 +1.0 96 -5 -5 очень
холодно
998.2 977.1 +3.8 1
18 18.06 З 6
{11}
10 км в посл. час ливневой снег 10/10 240 м
[Cb cap]
+1.1 +0.3 94 -5 -5 очень
холодно
998.3 977.2
21 18.06 З 5 5000 м слаб. ливневой снег 10/10 330 м
[Cb cap]
+0.3 -0.3 96 -6 -6 очень
холодно
998.6 977.4
00 19.06 СЗ 4 10 км слаб. ливневой снег 10/10 480 м
[Cb cap]
-0.4 -1.3 94 -6 -6 очень
холодно
999.7 978.4
03 19.06 З 4 10 км {ливн. осадки} 10/10 400 м
[Cb cap]
+0.3 -1.1 90 -5 -5 очень
холодно
997.5 979.2 -0.4 0.6 0
06 19.06 З 5 10 км в посл. час ливневой снег 9/6 480 м
[Cb cap Ac cast]
+1.5 -0.7 85 -4 -3 очень
холодно
1000.8 979.6
09 19.06 СЗ 6 10 км в посл. час ливневой снег 10/10 330 м
[Cb cap]
+1.5 -0.4 87 -5 -5 очень
холодно
1002.3 981.1
12 19.06 З 5 10 км {ливн. осадки} 10/8 800 м
[Cb cap Ac und]
+3.6 -2.0 67 -1 -1 очень
холодно
1003.4 982.4
15 19.06 З 4 10 км в посл. час ливневой дождь 9/9 840 м
[Cb cap]
+3.5 +0.6 81 -1 -1 очень
холодно
1004.2 983.1 +4.5 1
18 19.06 З 4
{10}
10 км {ливн. осадки} 10/10 600 м
[Cb cap]
+1.3 -0.1 90 -4 -4 очень
холодно
1004.9 983.6
21 19.06 ЮЗ 3 10 км 10/10 800 м
[Cb cap]
+0.9 -1.1 86 -4 -4 очень
холодно
1005.1 983.8
00 20.06 З 4 10 км в посл. час ливневой снег 10/8 840 м
[Cb cap Ac und]
+0.6 -1.1 88 -5 -5 очень
холодно
1005.3 984.0
03 20.06 ЮЗ 5 10 км 10/8 540 м
[Cb cap Ac und]
+2.0 -0.8 82 -4 -3 очень
холодно
1005.0 983.7 +0.2 0.1 0
06 20.06 ЮЗ 5 10 км слаб. ливневой снег 10/10 570 м
[Cb cap]
+2.7 +1.1 89 -3 -3 очень
холодно
1004.8 983.7
09 20.06 ЮЗ 6-10
{11}
10 км {ливн. осадки} 10/10 800 м
[Cb cap]
+5.5 +0.3 69 +1 +1 очень
холодно
1005.0 984.0
12 20.06 ЮЗ 4
{11}
10 км {ливн. осадки} 10/10 700 м
[Cb cap]
+5.7 +1.2 73 +2 +2 очень
холодно
1005.3 984.3
15 20.06 ЮЗ 4 10 км 10/8 1380 м
[Cb cap Ac und]
+6.3 +1.0 69 +3 +3 холодно 1004.7 983.7 +6.3 0.4
18 20.06 СЗ 2 10 км 10/10 1080 м
[Cb cap]
+4.8 +1.2 77 +2 +2 прохладно 1006.0 985.0
21 20.06 СЗ 1 10 км 9/9 1200 м
[Sc]
+2.9 -0.4 79 +1 +1 прохладно 1007.0 985.9
00 21.06 З 1 10 км 3/0
[Ac trans]
+2.6 -1.6 74 +1 +2 по сезону 1007.6 986.5
03 21.06 З 4 10 км 9/8 720 м
[Sc Ac trans]
+4.3 -2.1 63 0 +1 холодно 1007.5 986.4 +1.8
06 21.06 З 6 10 км 9/9 960 м
[Sc]
+5.4 -1.3 62 +1 +1 очень
холодно
1007.2 986.2
09 21.06 З 7
{10}
10 км 9/9 1440 м
[Cb cap]
+7.1 -1.0 56 +3 +3 холодно 1007.1 986.3
12 21.06 З 8-13
{13}
10 км 9/9 1170 м
[Cb cap]
+8.0 -0.8 54 +4 +4 очень
холодно
1007.5 986.7
15 21.06 З 8-12
{13}
10 км {ливн. осадки} 9/9 630 м
[Cb cap]
+4.3 +0.1 74 -2 -2 очень
холодно
1009.0 987.8 +8.7 0.0
18 21.06 З 7
{13}
10 км в посл. час ливневой дождь 10/10 360 м
[Sc]
+2.5 +1.2 91 -4 -4 очень
холодно
1008.6 987.6
21 21.06 З 6 8000 м слаб. дождь 10/10 240 м
[Frnb]
+2.1 +1.3 94 -4 -4 очень
холодно
1008.1 986.8
00 22.06 З 5 10 км в посл. час дождь 10/10 120 м
[Frnb]
+2.0 +0.9 92 -4 -4 очень
холодно
1008.6 987.3
03 22.06 З 6 8000 м слаб. дождь 10/10 120 м
[Frnb]
+2.3 +1.5 94 -4 -4 очень
холодно
1009.0 987.6 +1.8 0.4
06 22.06 З 7 10 км в посл. час ливневой дождь 10/10 930 м
[Cb cap]
+4.0 +0.3 77 -2 -2 очень
холодно
1008.9 987.7
09 22.06 З 7
{11}
10 км {ливн. осадки} 10/10 500 м
[Cb cap]
+5.8 +1.3 73 +1 +1 очень
холодно
1009.0 987.9
12 22.06 З 5
{11}
10 км {ливн. осадки} 9/9 660 м
[Sc]
+6.6 +1.1 68 +3 +3 очень
холодно
1009.6 988.7
15 22.06 З 3 10 км 3/3 600 м
[Sc]
+7.8 +1.1 63 +5 +6 прохладно 1009.2 988.3 +8.2 0.1
18 22.06 З 1 10 км 1/0
[Ac lent]
+7.0 +1.9 70 +6 +6 по сезону 1008.6 987.7
21 22.06 СВ 1 10 км ясно +3.4 +2.1 91 +2 +2 прохладно 1008.1 987.0
00 23.06 СВ 2 10 км ясно +3.2 +1.4 88 0 +1 прохладно 1007.5 986.4
03 23.06 С 2 10 км 6/0
[Ci]
+5.9 +1.7 74 +4 +8 прохладно 1006.6 985.6 +1.7
06 23.06 З 2 10 км 8/0
[Ac cast]
+9.9 +0.6 52 +9 +13 по сезону 1004.9 984.2
09 23.06 ЮЗ 2 10 км 9/0
[Ac trans]
+11.9 -1.4 40 +11 +16 по сезону 1003.6 983.1
12 23.06 З 2 10 км 9/0
[Ac trans]
+13.2 +1.3 44 +13 +16 по сезону 1002.5 982.2
15 23.06 СВ 3 7000 м слаб. дождь 10/0
[As op]
+9.5 +6.5 82 +7 +7 прохладно 1002.7 981.4 +13.5 0.5
18 23.06 СВ 4 5000 м слаб. дождь 10/10 700 м
[Sc]
+8.5 +6.1 85 +5 +5 прохладно 999.8 979.2
21 23.06 С 3 2400 м дождь 10/10 150 м
[Frnb]
+6.5 +6.1 97 +3 +3 прохладно 998.9 978.2
00 24.06 СЗ 4 6000 м слаб. ливневой дождь 10/10 120 м
[Cb cap]
+5.3 +4.8 97 +1 +1 прохладно 999.5 978.6
03 24.06 СЗ 5 10 км слаб. ливневой дождь 10/10 540 м
[Cb cap]
+2.9 +1.6 91 -3 -3 очень
холодно
1001.1 980.1 +2.5 9
06 24.06 СЗ 6 3200 м дымка {ливн. осадки} 10/10 120 м
[Frnb]
+3.3 +2.8 97 -3 -3 очень
холодно
1002.9 981.9
09 24.06 З 6
{10}
5000 м дымка {дождь} 10/10 360 м
[Cb cap]
+4.1 +2.1 87 -1 -1 очень
холодно
1005.2 984.1
12 24.06 СЗ 5
{10}
10 км в посл. час ливневой дождь 10/10 300 м
[Cb cap]
+3.7 +2.5 92 -2 -2 очень
холодно
1007.5 986.4
15 24.06 СЗ 7
{11}
10 км {ливн. осадки} 10/8 450 м
[Cb cap Ac und]
+4.1 +1.6 84 -2 -2 очень
холодно
1009.6 988.4 +5.0 0.3
18 24.06 З 5
{10}
10 км {ливн. осадки} 10/6 900 м
[Sc Ac und]
+1.5 -1.3 82 -4 -4 очень
холодно
1011.4 990.0
21 24.06 ЮЗ 3 10 км 10/10 870 м
[Sc]
+1.1 -1.2 85 -3 -3 очень
холодно
1011.8 990.4
00 25.06 ЮЗ 4 10 км 10/10 450 м
[Sc]
+1.3 -0.1 90 -4 -4 очень
холодно
1012.4 991.0
03 25.06 ЮЗ 5 10 км 10/10 330 м
[Sc]
+2.6 +1.0 89 -3 -3 очень
холодно
1012.6 991.4 +0.9
06 25.06 З 7
{10}
10 км в посл. час ливневой дождь 10/10 420 м
[Cb cap]
+4.7 +1.9 82 -1 -1 очень
холодно
1012.9 991.8

 

Местоположение метеостанции Воркута (Коми, Россия): широта 67.48 долгота 63.97 высота над уровнем моря 172 м.

В архиве по умолчанию представлена погода в Воркуте за последнюю неделю. Архивные данные за месяц целиком и за предыдущие месяцы, начиная с января 2011 года, Вы можете получить, выбрав интересующий диапазон дат из раскрывающегося списка и нажав кнопку "Ввод!".


*Определитесь, кто Вы:
робот инопланетянин человек

Внимание! Время в таблицах - всемирное. Для получения местного времени необходимо прибавить поправку, которая равна 3 ч.

Смотрите также архив погоды в соседних городах и на ближайших метеорологических станциях:

Погода в Елецкой (Коми, Россия) (48 км)
Погода в Харпе (Ямало-Ненецкий АО, Россия) (109 км)
Погода в Салехарде (Ямало-Ненецкий АО, Россия) (158 км)
Погода в Петруни (Коми, Россия) (182 км)
Погода в Белоярске (Ямало-Ненецкий АО, Россия) (192 км)
Погода в Усть-Каре (Ненецкий АО, Россия) (201 км)
Погода в Питляре (Ямало-Ненецкий АО, Россия) (203 км)
Погода в Харуте (Ненецкий АО, Россия) (204 км)
Погода в Мужах (Ямало-Ненецкий АО, Россия) (236 км)
Погода в Хорей-Вере (Ненецкий АО, Россия) (254 км)

Пояснения к столбцам:

Ветер - указаны скорость ветра в м/с - средняя за 10 мин, порывы в срок и между сроками (в фигурных скобках) и направление, откуда дует ветер: С - северный, СВ - северо-восточный, В - восточный, ЮВ - юго-восточный, Ю - южный, ЮЗ - юго-западный, З - западный, СЗ - северо-западный.
Видимость - горизонтальная дальность видимости в метрах или километрах. При видимости от 1 до 10 км при отсутствии осадков обычно наблюдается дымка, при ухудшении видимости до 1 км и менее - туман. В сухую погоду видимость может ухудшаться дымом, пылью или мглою.
Явления - указаны атмосферные явления, наблюдавшиеся в срок или в последний час перед сроком; фигурными скобками обозначены явления, наблюдавшиеся между сроками (за 1-3 часа до срока); квадратными скобками обозначены град или гололедные отложения с указанием их диаметра в мм.
Облачность - указаны через наклонную черту общая и нижняя облачность в баллах и высота нижней границы облаков в метрах; квадратными скобками обозначены формы облаков: Ci - перистые, Cs - перисто-слоистые, Cc - перисто-кучевые, Ac - высококучевые, As - высокослоистые, Sc - слоисто-кучевые, Ns - слоисто-дождевые, Cu - кучевые, Cb - кучево-дождевые. Подробнее классификацию облаков см. в Атласе облаков (PDF).
T - Температура воздуха - температура, измеренная на высоте 2 м над землей.
Td - Температура точки росы - температура, при понижении до которой содержащийся в воздухе водяной пар достигнет насыщения.
f - Относительная влажность воздуха - влажноcть воздуха, измеренная на высоте 2 м над землей.
Te - Эффективная температура - температура, которую ощущает одетый по сезону человек в тени. Характеристика душности погоды. При расчете учитывается влияние влажности воздуха и скорости ветра на теплоощущения человека.
Tes - Эффективная температура на солнце - температура, которую ощущает человек, с поправкой на солнечный нагрев. Характеристика знойности погоды. Зависит от высоты солнца над горизонтом, облачности и скорости ветра. Ночью, в пасмурную погоду, а также при ветре 12 м/с и более поправка равна нулю.
P - Атмосферное давление - приведенное к уровню моря атмосферное давление.
Po - Атмосферное давление - измеренное на уровне метеостанции атмосферное давление.
Tmin - Минимальная температура - минимум температуры воздуха на высоте 2 м над землей.
Tmax - Максимальная температура - максимум температуры воздуха на высоте 2 м над землей.
R - Количество осадков - Количество выпавших осадков за период времени, мм. При наведении курсора мыши на число - период времени, за который выпало указанное количество осадков.
R24 - Количество осадков - Количество выпавших осадков за 24 часа, мм.
S - Снежный покров - Высота снежного покрова, см. При наведении курсора мыши на число - состояние снежного покрова и степень покрытия местности в баллах.